FENGYUN 1C DEB, 30888

Orbit data source: Space-Track

FENGYUN 1C DEB, 30888 is space debris in SSO originally from a launch on Mon, 10 May 1999 UTC launched from the Taiyaun Space Center, China (TSC). Fengyun 1C debris stems from the Chinese weather satellite Fengyun-1C, which was intentionally destroyed by a Chinese anti-satellite missile in 2007. This event dramatically increased the amount of space debris, with thousands of trackable fragments posing hazards to satellites and human spaceflight. The Fengyun 1C debris cloud has become a focal point in discussions about space sustainability and the need for international regulations to prevent the creation of new debris.

Loading next visibility...
Identifier
30888, 1999-025AYA
Orbit
SSO
Country
Flag of CNCN / PRC
Related business
Manufacturer
Unknown
Mission
Spacecraft
Bus & Motor
Unknown
Mass
Unknown
Launch date (UTC)
1999-05-10 (27 years ago)
Launch vehicle
Unknown
Launch site
Taiyaun Space Center, China (TSC)
Object type
Payload
Rocket body
Debris
Shape & HBR
Unknown shape, 0.1 m
Radar Cross Section
Medium (>0.1 m² and <1 m²)

Expand to show TLE details & history
Last TLE update: 2 days ago

TLE from 2 days ago
0 FENGYUN 1C DEB
1 30888U 99025AYA 26208.02019138  .00012174  00000-0  92615-3 0  9995
2 30888  99.4813 239.9583 0072466 146.4148 214.1694 15.00224178 33031
Epoch: 2026-07-27T00:29Z
TLE epoch observation values (Epoch: 2026-07-27T00:29:04.535Z)
Latitude
-0.00007°
Longitude
-72.02035°
Altitude
610.96 km
Speed
7.531 km/s
True Right ascension
15h 59m 49s
True Declination
0° 00' 00"
Sunlit
Object was in daylight at epoch
Visualization orbit readout
Latitude
Unknown
Longitude
Unknown
Altitude
Unknown
Speed
Unknown
Apparent Right ascension
Unknown
Apparent Declination
Unknown
Sunlit
N/A
Visualization observer readout
Local Sidereal Time
06:43:30
Azimuth
Unknown
Elevation
Unknown
Doppler factor
Unknown
Orbital elements
Apogee altitude
613.598 km
Perigee altitude
512.995 km
Semi-major axis
6,941.434 km
Eccentricity
0.00725
Inclination
99.4813°
RAAN
239.9583°
Arg. of periapsis
146.4148°
True anomaly
213.70649°
Mean anomaly
214.1694°
Eccentric anomaly
213.9376°
Mean motion
3.75292 °/min
Orbital period
95.93 mins
BSTAR
0.00092615
Loading maneuver chart data...
Computing Atmospheric mass density...

Documentation

Showing up to 5 results
|